^^
Saratoga-Weather Station Historical Data
Daily Summary for December 30, 2021 Units:  Metric    English   Both
Daily Weekly Monthly Yearly Custom
  High: Low: Average:
Temperature: 13.9 °C 10.8 °C 12.8 °C
Dew Point: 12.5 °C 9.9 °C 11.8 °C
Humidity: 96% 90% 94%
Wind Speed: 16.3km/h 0km/h 3.6km/h
Wind Gust: 22.5km/h - -
Wind- - West
Pressure: 1022.4 hPa 1013.5 hPa -
Precipitation: 2.3 mm    
Historical Graphs
 
 
Tabular Data for December 30, 2021
Time Temperature Dew Point Pressure Wind Wind Speed Wind Gust Humidity Rainfall Rate (Hourly) solar
00:03 13.1 °C 11.8 °C 1013.5 hPa WSW 4.7 km/h 8 km/h 92% 0.0 mm 0 W/m2
00:08 13.1 °C 11.8 °C 1013.5 hPa West 4.7 km/h 11.3 km/h 92% 0.0 mm 0 W/m2
00:13 13.1 °C 11.8 °C 1013.9 hPa West 3.2 km/h 11.3 km/h 92% 0.0 mm 0 W/m2
00:18 13.1 °C 11.8 °C 1013.9 hPa SW 11.1 km/h 16.1 km/h 92% 0.0 mm 0 W/m2
00:23 13.2 °C 11.9 °C 1013.9 hPa WNW 4.7 km/h 17.7 km/h 92% 0.0 mm 0 W/m2
00:28 13.1 °C 11.8 °C 1013.9 hPa West 6.4 km/h 19.3 km/h 92% 0.0 mm 0 W/m2
00:33 13.1 °C 11.8 °C 1014.2 hPa WNW 13 km/h 19.3 km/h 92% 0.0 mm 0 W/m2
00:38 13 °C 11.9 °C 1014.2 hPa WSW 4.7 km/h 20.9 km/h 93% 0.0 mm 0 W/m2
00:43 13 °C 11.9 °C 1014.2 hPa West 14.3 km/h 14.5 km/h 93% 0.0 mm 0 W/m2
00:48 12.9 °C 11.8 °C 1014.2 hPa West 6.4 km/h 11.3 km/h 93% 0.0 mm 0 W/m2
00:53 12.9 °C 11.8 °C 1014.2 hPa WSW 4.7 km/h 16.1 km/h 93% 0.0 mm 0 W/m2
00:58 12.8 °C 11.7 °C 1014.6 hPa West 9.7 km/h 19.3 km/h 93% 0.0 mm 0 W/m2
01:03 12.8 °C 11.7 °C 1014.2 hPa West 11.1 km/h 12.9 km/h 93% 0.0 mm 0 W/m2
01:08 12.8 °C 11.9 °C 1014.6 hPa WSW 4.7 km/h 9.7 km/h 94% 0.0 mm 0 W/m2
01:13 12.8 °C 11.9 °C 1014.6 hPa West 6.4 km/h 9.7 km/h 94% 0.0 mm 0 W/m2
01:18 12.8 °C 11.9 °C 1014.6 hPa WNW 6.4 km/h 12.9 km/h 94% 0.0 mm 0 W/m2
01:23 12.8 °C 11.9 °C 1014.6 hPa WNW 11.1 km/h 11.3 km/h 94% 0.0 mm 0 W/m2
01:28 12.8 °C 11.9 °C 1014.6 hPa West 6.4 km/h 9.7 km/h 94% 0.0 mm 0 W/m2
01:33 12.8 °C 12 °C 1014.6 hPa West 3.2 km/h 9.7 km/h 95% 0.0 mm 0 W/m2
01:38 12.8 °C 12 °C 1014.6 hPa NW 6.4 km/h 12.9 km/h 95% 0.0 mm 0 W/m2
01:43 12.8 °C 12 °C 1014.6 hPa West 3.2 km/h 6.4 km/h 95% 0.0 mm 0 W/m2
01:48 12.8 °C 12 °C 1014.6 hPa NW 11.1 km/h 12.9 km/h 95% 0.2 mm 0 W/m2
01:53 12.8 °C 12 °C 1014.9 hPa West 4.7 km/h 11.3 km/h 95% 0.2 mm 0 W/m2
01:58 12.8 °C 12 °C 1014.9 hPa WNW 4.7 km/h 12.9 km/h 95% 0.2 mm 0 W/m2
02:03 12.8 °C 12 °C 1014.9 hPa West 6.4 km/h 8 km/h 95% 0.2 mm 0 W/m2
02:08 12.8 °C 12 °C 1015.2 hPa WNW 1.4 km/h 6.4 km/h 95% 0.2 mm 0 W/m2
02:13 12.8 °C 12 °C 1015.2 hPa NW 4.7 km/h 11.3 km/h 95% 0.2 mm 0 W/m2
02:18 12.8 °C 12 °C 1015.2 hPa WNW 1.4 km/h 8 km/h 95% 0.2 mm 0 W/m2
02:23 12.8 °C 12 °C 1015.2 hPa Calm   3.2 km/h 95% 0.5 mm 0 W/m2
02:28 12.8 °C 12 °C 1015.2 hPa NW 4.7 km/h 6.4 km/h 95% 0.5 mm 0 W/m2
02:33 12.8 °C 12 °C 1015.2 hPa Calm   4.8 km/h 95% 0.5 mm 0 W/m2
02:38 12.8 °C 12 °C 1015.2 hPa WSW 1.4 km/h 6.4 km/h 95% 0.5 mm 0 W/m2
02:43 12.8 °C 12 °C 1015.2 hPa Calm   3.2 km/h 95% 0.5 mm 0 W/m2
02:48 12.8 °C 12 °C 1015.2 hPa Calm   3.2 km/h 95% 0.5 mm 0 W/m2
02:53 12.8 °C 12 °C 1015.2 hPa SW 1.4 km/h 3.2 km/h 95% 0.5 mm 0 W/m2
02:58 12.9 °C 12.1 °C 1015.2 hPa West 1.4 km/h 11.3 km/h 95% 0.5 mm 0 W/m2
03:03 12.9 °C 12.3 °C 1015.2 hPa NW 4.7 km/h 6.4 km/h 96% 0.5 mm 0 W/m2
03:08 12.9 °C 12.3 °C 1015.6 hPa WNW 1.4 km/h 6.4 km/h 96% 0.5 mm 0 W/m2
03:13 12.9 °C 12.3 °C 1015.6 hPa NW 1.4 km/h 4.8 km/h 96% 0.8 mm 0 W/m2
03:18 12.9 °C 12.3 °C 1015.6 hPa WNW 16.3 km/h 16.1 km/h 96% 0.8 mm 0 W/m2
03:23 12.9 °C 12.3 °C 1015.6 hPa West 6.4 km/h 8 km/h 96% 0.5 mm 0 W/m2
03:28 12.9 °C 12.3 °C 1015.6 hPa NNW 1.4 km/h 6.4 km/h 96% 0.8 mm 0 W/m2
03:33 12.9 °C 12.3 °C 1015.6 hPa NNW 6.4 km/h 6.4 km/h 96% 0.8 mm 0 W/m2
03:38 12.9 °C 12.3 °C 1015.9 hPa West 3.2 km/h 8 km/h 96% 0.5 mm 0 W/m2
03:43 12.9 °C 12.3 °C 1015.9 hPa NNW 9.7 km/h 9.7 km/h 96% 0.5 mm 0 W/m2
03:48 12.9 °C 12.3 °C 1015.9 hPa WNW 4.7 km/h 8 km/h 96% 0.8 mm 0 W/m2
03:53 12.9 °C 12.3 °C 1015.9 hPa WNW 4.7 km/h 4.8 km/h 96% 0.5 mm 0 W/m2
03:58 12.9 °C 12.3 °C 1015.9 hPa WNW 6.4 km/h 14.5 km/h 96% 0.5 mm 0 W/m2
04:03 12.9 °C 12.3 °C 1015.9 hPa West 6.4 km/h 9.7 km/h 96% 0.5 mm 0 W/m2
04:08 12.9 °C 12.3 °C 1015.9 hPa WNW 6.4 km/h 14.5 km/h 96% 0.5 mm 0 W/m2
04:13 12.9 °C 12.3 °C 1015.9 hPa West 1.4 km/h 17.7 km/h 96% 0.5 mm 0 W/m2
04:18 12.9 °C 12.3 °C 1015.9 hPa NW 4.7 km/h 8 km/h 96% 0.5 mm 0 W/m2
04:23 12.9 °C 12.3 °C 1015.9 hPa WNW 4.7 km/h 17.7 km/h 96% 0.5 mm 0 W/m2
04:28 12.9 °C 12.3 °C 1015.9 hPa NNW 7.9 km/h 16.1 km/h 96% 0.5 mm 0 W/m2
04:33 12.9 °C 12.3 °C 1016.3 hPa WNW 14.3 km/h 14.5 km/h 96% 0.5 mm 0 W/m2
04:38 12.9 °C 12.1 °C 1016.3 hPa NNW 1.4 km/h 16.1 km/h 95% 0.5 mm 0 W/m2
04:43 12.9 °C 12.1 °C 1016.3 hPa WNW 3.2 km/h 6.4 km/h 95% 0.5 mm 0 W/m2
04:48 12.9 °C 12.1 °C 1016.3 hPa WNW 11.1 km/h 14.5 km/h 95% 0.2 mm 0 W/m2
04:53 12.9 °C 12.1 °C 1016.3 hPa WNW 3.2 km/h 14.5 km/h 95% 0.2 mm 0 W/m2
04:58 12.9 °C 12.1 °C 1016.3 hPa WNW 4.7 km/h 9.7 km/h 95% 0.2 mm 0 W/m2
05:03 12.9 °C 12.1 °C 1016.3 hPa NNW 1.4 km/h 16.1 km/h 95% 0.2 mm 0 W/m2
05:08 12.9 °C 12.1 °C 1016.3 hPa Calm   9.7 km/h 95% 0.2 mm 0 W/m2
05:14 12.9 °C 12.1 °C 1016.3 hPa WNW 4.7 km/h 16.1 km/h 95% 0.5 mm 0 W/m2
05:19 12.9 °C 12.1 °C 1016.3 hPa NW 3.2 km/h 9.7 km/h 95% 0.5 mm 0 W/m2
05:24 12.8 °C 12 °C 1016.3 hPa WNW 4.7 km/h 16.1 km/h 95% 0.2 mm 0 W/m2
05:29 12.8 °C 12 °C 1016.6 hPa West 4.7 km/h 6.4 km/h 95% 0.2 mm 0 W/m2
05:34 12.8 °C 12 °C 1016.6 hPa WSW 6.4 km/h 11.3 km/h 95% 0.2 mm 0 W/m2
05:39 12.8 °C 12 °C 1016.6 hPa NW 7.9 km/h 9.7 km/h 95% 0.2 mm 0 W/m2
05:44 12.8 °C 12 °C 1016.6 hPa NW 3.2 km/h 6.4 km/h 95% 0.2 mm 0 W/m2
05:49 12.7 °C 11.9 °C 1016.6 hPa NW 14.3 km/h 14.5 km/h 95% 0.2 mm 0 W/m2
05:54 12.8 °C 12 °C 1016.6 hPa NNW 1.4 km/h 8 km/h 95% 0.2 mm 0 W/m2
05:59 12.7 °C 11.9 °C 1016.6 hPa WSW 7.9 km/h 14.5 km/h 95% 0.2 mm 0 W/m2
06:04 12.7 °C 11.9 °C 1016.6 hPa SW 6.4 km/h 12.9 km/h 95% 0.2 mm 0 W/m2
06:09 12.7 °C 11.9 °C 1016.6 hPa Calm   9.7 km/h 95% 0.2 mm 0 W/m2
06:14 12.7 °C 11.9 °C 1016.9 hPa SW 6.4 km/h 22.5 km/h 95% 0.2 mm 0 W/m2
06:19 12.7 °C 11.9 °C 1016.6 hPa NNW 4.7 km/h 6.4 km/h 95% 0.2 mm 0 W/m2
06:24 12.7 °C 11.9 °C 1016.9 hPa NW 3.2 km/h 22.5 km/h 95% 0.2 mm 0 W/m2
06:29 12.7 °C 11.9 °C 1016.9 hPa WNW 4.7 km/h 9.7 km/h 95% 0.2 mm 0 W/m2
06:34 12.7 °C 11.9 °C 1016.9 hPa Calm   8 km/h 95% 0.2 mm 0 W/m2
06:39 12.7 °C 11.9 °C 1016.9 hPa NW 4.7 km/h 16.1 km/h 95% 0.2 mm 0 W/m2
06:44 12.7 °C 11.9 °C 1017.3 hPa NW 4.7 km/h 12.9 km/h 95% 0.2 mm 0 W/m2
06:49 12.7 °C 11.9 °C 1017.3 hPa NNW 7.9 km/h 19.3 km/h 95% 0.2 mm 0 W/m2
06:54 12.7 °C 12.1 °C 1017.3 hPa WSW 4.7 km/h 16.1 km/h 96% 0.2 mm 0 W/m2
06:59 12.7 °C 12.1 °C 1017.3 hPa NW 6.4 km/h 17.7 km/h 96% 0.2 mm 0 W/m2
07:04 12.7 °C 11.9 °C 1017.3 hPa NW 3.2 km/h 6.4 km/h 95% 0.2 mm 0 W/m2
07:09 12.7 °C 11.9 °C 1017.6 hPa WSW 4.7 km/h 19.3 km/h 95% 0.2 mm 0 W/m2
07:14 12.7 °C 11.9 °C 1017.6 hPa WNW 4.7 km/h 17.7 km/h 95% 0.0 mm 0 W/m2
07:19 12.7 °C 11.9 °C 1017.6 hPa NNE 4.7 km/h 19.3 km/h 95% 0.0 mm 0 W/m2
07:24 12.7 °C 11.9 °C 1017.6 hPa NNW 1.4 km/h 6.4 km/h 95% 0.0 mm 0 W/m2
07:29 12.7 °C 12.1 °C 1017.6 hPa NW 4.7 km/h 9.7 km/h 96% 0.0 mm 0 W/m2
07:34 12.7 °C 12.1 °C 1018.0 hPa Calm   4.8 km/h 96% 0.0 mm 0 W/m2
07:39 12.7 °C 12.1 °C 1018.0 hPa WNW 4.7 km/h 6.4 km/h 96% 0.0 mm 0 W/m2
07:44 12.7 °C 12.1 °C 1018.0 hPa WNW 6.4 km/h 8 km/h 96% 0.0 mm 0 W/m2
07:49 12.7 °C 12.1 °C 1018.0 hPa West 3.2 km/h 9.7 km/h 96% 0.0 mm 0 W/m2
07:54 12.7 °C 12.1 °C 1018.0 hPa WNW 3.2 km/h 6.4 km/h 96% 0.0 mm 0 W/m2
07:59 12.7 °C 12.1 °C 1018.0 hPa West 4.7 km/h 14.5 km/h 96% 0.2 mm 0 W/m2
08:04 12.7 °C 12.1 °C 1018.0 hPa NW 6.4 km/h 6.4 km/h 96% 0.2 mm 0 W/m2
08:09 12.7 °C 12.1 °C 1018.0 hPa Calm   6.4 km/h 96% 0.2 mm 0 W/m2
08:14 12.7 °C 12.1 °C 1018.3 hPa West 1.4 km/h 6.4 km/h 96% 0.2 mm 0 W/m2
08:19 12.7 °C 12.1 °C 1018.3 hPa WNW 14.3 km/h 14.5 km/h 96% 0.2 mm 0 W/m2
08:24 12.7 °C 12.1 °C 1018.3 hPa Calm   6.4 km/h 96% 0.2 mm 0 W/m2
08:29 12.7 °C 12.1 °C 1018.3 hPa NE 4.7 km/h 4.8 km/h 96% 0.2 mm 0 W/m2
08:34 12.7 °C 12.1 °C 1018.3 hPa West 4.7 km/h 14.5 km/h 96% 0.2 mm 0 W/m2
08:39 12.7 °C 12.1 °C 1018.3 hPa WNW 3.2 km/h 9.7 km/h 96% 0.2 mm 0 W/m2
08:44 12.7 °C 12.1 °C 1018.6 hPa NW 6.4 km/h 14.5 km/h 96% 0.2 mm 0 W/m2
08:49 12.7 °C 12.1 °C 1018.6 hPa Calm   3.2 km/h 96% 0.2 mm 0 W/m2
08:54 12.7 °C 12.1 °C 1018.6 hPa NNW 6.4 km/h 14.5 km/h 96% 0.2 mm 5 W/m2
08:59 12.7 °C 12.1 °C 1018.6 hPa WNW 6.4 km/h 19.3 km/h 96% 0.0 mm 7 W/m2
09:04 12.7 °C 12.1 °C 1018.6 hPa SSW 1.4 km/h 6.4 km/h 96% 0.0 mm 9 W/m2
09:09 12.7 °C 12.1 °C 1018.6 hPa West 3.2 km/h 6.4 km/h 96% 0.0 mm 12 W/m2
09:14 12.7 °C 12.1 °C 1018.6 hPa South 3.2 km/h 8 km/h 96% 0.0 mm 12 W/m2
09:19 12.7 °C 12.1 °C 1018.6 hPa NW 1.4 km/h 6.4 km/h 96% 0.0 mm 14 W/m2
09:24 12.7 °C 12.1 °C 1019.0 hPa WSW 3.2 km/h 11.3 km/h 96% 0.0 mm 14 W/m2
09:29 12.7 °C 12.1 °C 1019.0 hPa West 14.3 km/h 14.5 km/h 96% 0.0 mm 18 W/m2
09:34 12.8 °C 12.2 °C 1018.6 hPa WNW 6.4 km/h 11.3 km/h 96% 0.0 mm 23 W/m2
09:39 12.8 °C 12.2 °C 1018.6 hPa WNW 3.2 km/h 6.4 km/h 96% 0.0 mm 23 W/m2
09:44 12.8 °C 12.2 °C 1019.0 hPa WNW 13 km/h 19.3 km/h 96% 0.0 mm 21 W/m2
09:49 12.8 °C 12.2 °C 1019.0 hPa NNW 3.2 km/h 8 km/h 96% 0.0 mm 18 W/m2
09:54 12.8 °C 12.2 °C 1019.0 hPa WSW 1.4 km/h 17.7 km/h 96% 0.0 mm 26 W/m2
09:59 12.8 °C 12.2 °C 1019.0 hPa East 6.4 km/h 6.4 km/h 96% 0.0 mm 26 W/m2
10:04 12.8 °C 12.2 °C 1019.0 hPa West 1.4 km/h 3.2 km/h 96% 0.0 mm 30 W/m2
10:09 12.8 °C 12.2 °C 1019.0 hPa Calm   9.7 km/h 96% 0.0 mm 26 W/m2
10:14 12.9 °C 12.3 °C 1019.0 hPa WSW 1.4 km/h 8 km/h 96% 0.0 mm 30 W/m2
10:19 12.9 °C 12.1 °C 1019.3 hPa North 4.7 km/h 4.8 km/h 95% 0.0 mm 21 W/m2
10:24 12.9 °C 12.3 °C 1019.3 hPa SW 3.2 km/h 9.7 km/h 96% 0.0 mm 37 W/m2
10:29 12.9 °C 12.3 °C 1019.3 hPa West 3.2 km/h 8 km/h 96% 0.0 mm 25 W/m2
10:34 12.9 °C 12.3 °C 1019.3 hPa WNW 1.4 km/h 4.8 km/h 96% 0.0 mm 33 W/m2
10:39 13 °C 12.4 °C 1019.6 hPa SSE 3.2 km/h 4.8 km/h 96% 0.0 mm 35 W/m2
10:44 13 °C 12.4 °C 1019.6 hPa North 3.2 km/h 3.2 km/h 96% 0.0 mm 44 W/m2
10:49 13 °C 12.4 °C 1019.6 hPa WNW 3.2 km/h 11.3 km/h 96% 0.0 mm 51 W/m2
10:54 13 °C 12.2 °C 1019.6 hPa South 4.7 km/h 8 km/h 95% 0.0 mm 40 W/m2
10:59 13.1 °C 12.3 °C 1019.6 hPa WNW 4.7 km/h 9.7 km/h 95% 0.0 mm 40 W/m2
11:04 13.1 °C 12.3 °C 1019.6 hPa West 6.4 km/h 6.4 km/h 95% 0.0 mm 32 W/m2
11:09 13.1 °C 12.3 °C 1019.6 hPa NW 4.7 km/h 6.4 km/h 95% 0.0 mm 33 W/m2
11:14 13.1 °C 12.3 °C 1019.6 hPa West 9.7 km/h 9.7 km/h 95% 0.0 mm 40 W/m2
11:19 13.1 °C 12.3 °C 1019.3 hPa WNW 1.4 km/h 19.3 km/h 95% 0.0 mm 44 W/m2
11:24 13.1 °C 12.3 °C 1019.6 hPa West 1.4 km/h 9.7 km/h 95% 0.0 mm 53 W/m2
11:29 13.1 °C 12.3 °C 1019.6 hPa NW 6.4 km/h 19.3 km/h 95% 0.0 mm 53 W/m2
11:34 13.2 °C 12.4 °C 1019.6 hPa NW 3.2 km/h 14.5 km/h 95% 0.0 mm 62 W/m2
11:39 13.2 °C 12.4 °C 1019.6 hPa WNW 4.7 km/h 6.4 km/h 95% 0.0 mm 102 W/m2
11:44 13.2 °C 12.4 °C 1019.6 hPa NW 4.7 km/h 14.5 km/h 95% 0.0 mm 88 W/m2
11:49 13.2 °C 12.4 °C 1019.6 hPa WNW 4.7 km/h 12.9 km/h 95% 0.0 mm 74 W/m2
11:54 13.3 °C 12.5 °C 1019.6 hPa West 11.1 km/h 20.9 km/h 95% 0.0 mm 69 W/m2
11:59 13.3 °C 12.4 °C 1019.6 hPa WNW 11.1 km/h 14.5 km/h 94% 0.0 mm 88 W/m2
12:04 13.3 °C 12.4 °C 1019.6 hPa WNW 11.1 km/h 12.9 km/h 94% 0.0 mm 72 W/m2
12:09 13.4 °C 12.5 °C 1019.6 hPa NW 6.4 km/h 11.3 km/h 94% 0.0 mm 77 W/m2
12:14 13.4 °C 12.5 °C 1019.6 hPa NNW 6.4 km/h 12.9 km/h 94% 0.0 mm 84 W/m2
12:19 13.4 °C 12.3 °C 1019.6 hPa Calm   9.7 km/h 93% 0.0 mm 79 W/m2
12:24 13.5 °C 12.4 °C 1019.6 hPa SSW 4.7 km/h 6.4 km/h 93% 0.0 mm 84 W/m2
12:29 13.5 °C 12.4 °C 1019.3 hPa West 14.3 km/h 14.5 km/h 93% 0.0 mm 104 W/m2
12:34 13.6 °C 12.5 °C 1019.3 hPa West 1.4 km/h 8 km/h 93% 0.0 mm 118 W/m2
12:39 13.6 °C 12.5 °C 1019.6 hPa SW 9.7 km/h 16.1 km/h 93% 0.0 mm 120 W/m2
12:44 13.7 °C 12.4 °C 1019.6 hPa WSW 1.4 km/h 4.8 km/h 92% 0.0 mm 123 W/m2
12:49 13.7 °C 12.4 °C 1019.6 hPa WNW 3.2 km/h 3.2 km/h 92% 0.0 mm 76 W/m2
12:54 13.7 °C 12.4 °C 1019.6 hPa NW 1.4 km/h 8 km/h 92% 0.0 mm 120 W/m2
12:59 13.7 °C 12.4 °C 1019.6 hPa NW 3.2 km/h 6.4 km/h 92% 0.0 mm 163 W/m2
13:04 13.8 °C 12.5 °C 1019.6 hPa Calm   3.2 km/h 92% 0.0 mm 132 W/m2
13:09 13.8 °C 12.5 °C 1019.6 hPa Calm   6.4 km/h 92% 0.0 mm 137 W/m2
13:14 13.9 °C 12.5 °C 1019.6 hPa West 3.2 km/h 8 km/h 91% 0.0 mm 95 W/m2
13:19 13.9 °C 12.5 °C 1019.6 hPa WSW 11.1 km/h 14.5 km/h 91% 0.0 mm 74 W/m2
13:24 13.9 °C 12.5 °C 1019.6 hPa Calm   14.5 km/h 91% 0.0 mm 60 W/m2
13:29 13.8 °C 12.4 °C 1019.6 hPa ENE 3.2 km/h 4.8 km/h 91% 0.0 mm 128 W/m2
13:34 13.7 °C 12.3 °C 1019.6 hPa SW 4.7 km/h 6.4 km/h 91% 0.0 mm 54 W/m2
13:39 13.7 °C 12.3 °C 1019.6 hPa WSW 3.2 km/h 4.8 km/h 91% 0.0 mm 72 W/m2
13:44 13.7 °C 12.3 °C 1019.3 hPa South 1.4 km/h 6.4 km/h 91% 0.0 mm 37 W/m2
13:49 13.7 °C 12.3 °C 1019.3 hPa NE 1.4 km/h 4.8 km/h 91% 0.0 mm 104 W/m2
13:54 13.7 °C 12.3 °C 1019.3 hPa SW 1.4 km/h 17.7 km/h 91% 0.0 mm 123 W/m2
13:59 13.7 °C 12.3 °C 1019.3 hPa ENE 1.4 km/h 14.5 km/h 91% 0.0 mm 74 W/m2
14:04 13.8 °C 12.4 °C 1019.3 hPa WNW 9.7 km/h 17.7 km/h 91% 0.0 mm 72 W/m2
14:09 13.8 °C 12.2 °C 1019.3 hPa NW 4.7 km/h 11.3 km/h 90% 0.0 mm 86 W/m2
14:14 13.8 °C 12.2 °C 1019.3 hPa West 1.4 km/h 14.5 km/h 90% 0.0 mm 69 W/m2
14:19 13.8 °C 12.2 °C 1019.6 hPa West 13 km/h 12.9 km/h 90% 0.0 mm 35 W/m2
14:24 13.7 °C 12.1 °C 1019.6 hPa WNW 6.4 km/h 11.3 km/h 90% 0.0 mm 42 W/m2
14:29 13.7 °C 12.1 °C 1019.6 hPa WSW 1.4 km/h 14.5 km/h 90% 0.0 mm 51 W/m2
14:34 13.7 °C 12.3 °C 1019.6 hPa Calm   3.2 km/h 91% 0.0 mm 51 W/m2
14:39 13.6 °C 12.2 °C 1019.6 hPa NW 4.7 km/h 17.7 km/h 91% 0.2 mm 47 W/m2
14:44 13.6 °C 12.2 °C 1019.6 hPa NW 3.2 km/h 6.4 km/h 91% 0.2 mm 62 W/m2
14:49 13.5 °C 12.1 °C 1019.6 hPa WSW 4.7 km/h 16.1 km/h 91% 0.2 mm 62 W/m2
14:54 13.4 °C 12 °C 1019.6 hPa NW 4.7 km/h 6.4 km/h 91% 0.2 mm 54 W/m2
14:59 13.4 °C 12 °C 1019.6 hPa North 3.2 km/h 8 km/h 91% 0.2 mm 65 W/m2
15:04 13.4 °C 12 °C 1019.6 hPa WSW 6.4 km/h 9.7 km/h 91% 0.2 mm 67 W/m2
15:09 13.4 °C 12 °C 1019.6 hPa ESE 3.2 km/h 9.7 km/h 91% 0.2 mm 53 W/m2
15:14 13.4 °C 12 °C 1019.6 hPa NW 4.7 km/h 6.4 km/h 91% 0.2 mm 33 W/m2
15:19 13.4 °C 12 °C 1019.6 hPa South 4.7 km/h 9.7 km/h 91% 0.2 mm 39 W/m2
15:24 13.4 °C 12 °C 1019.6 hPa NNW 1.4 km/h 3.2 km/h 91% 0.2 mm 30 W/m2
15:29 13.4 °C 12 °C 1019.6 hPa WNW 1.4 km/h 4.8 km/h 91% 0.2 mm 25 W/m2
15:34 13.4 °C 12 °C 1020.0 hPa Calm   3.2 km/h 91% 0.2 mm 12 W/m2
15:39 13.4 °C 12 °C 1020.0 hPa NW 11.1 km/h 14.5 km/h 91% 0.0 mm 19 W/m2
15:44 13.4 °C 12 °C 1020.0 hPa WNW 1.4 km/h 3.2 km/h 91% 0.0 mm 21 W/m2
15:49 13.4 °C 12 °C 1020.0 hPa WNW 1.4 km/h 8 km/h 91% 0.0 mm 23 W/m2
15:54 13.3 °C 11.9 °C 1020.0 hPa West 3.2 km/h 4.8 km/h 91% 0.0 mm 23 W/m2
15:59 13.3 °C 11.9 °C 1020.0 hPa SSW 3.2 km/h 8 km/h 91% 0.0 mm 16 W/m2
16:04 13.3 °C 11.9 °C 1020.0 hPa ESE 1.4 km/h 6.4 km/h 91% 0.0 mm 18 W/m2
16:09 13.3 °C 11.9 °C 1020.0 hPa WNW 6.4 km/h 14.5 km/h 91% 0.0 mm 11 W/m2
16:14 13.3 °C 11.9 °C 1020.0 hPa ENE 4.7 km/h 9.7 km/h 91% 0.0 mm 16 W/m2
16:19 13.2 °C 11.8 °C 1020.3 hPa ESE 3.2 km/h 8 km/h 91% 0.0 mm 16 W/m2
16:24 13.2 °C 11.9 °C 1020.3 hPa NW 3.2 km/h 3.2 km/h 92% 0.0 mm 12 W/m2
16:29 13.1 °C 11.8 °C 1020.3 hPa NE 1.4 km/h 4.8 km/h 92% 0.0 mm 9 W/m2
16:34 13.1 °C 11.8 °C 1020.3 hPa NW 3.2 km/h 8 km/h 92% 0.0 mm 5 W/m2
16:39 13.1 °C 11.8 °C 1020.3 hPa WNW 4.7 km/h 8 km/h 92% 0.0 mm 5 W/m2
16:44 13.1 °C 11.8 °C 1020.3 hPa NW 3.2 km/h 14.5 km/h 92% 0.0 mm 5 W/m2
16:49 13.1 °C 11.8 °C 1020.3 hPa SW 6.4 km/h 12.9 km/h 92% 0.0 mm 5 W/m2
16:54 13.1 °C 11.8 °C 1020.7 hPa Calm   14.5 km/h 92% 0.0 mm 5 W/m2
16:59 13 °C 11.7 °C 1020.7 hPa NNW 1.4 km/h 3.2 km/h 92% 0.0 mm 0 W/m2
17:04 13 °C 11.7 °C 1020.7 hPa NW 3.2 km/h 4.8 km/h 92% 0.0 mm 0 W/m2
17:09 13 °C 11.7 °C 1020.7 hPa WNW 4.7 km/h 12.9 km/h 92% 0.0 mm 0 W/m2
17:14 13 °C 11.7 °C 1020.7 hPa SW 4.7 km/h 8 km/h 92% 0.0 mm 0 W/m2
17:19 13 °C 11.7 °C 1020.7 hPa NW 1.4 km/h 12.9 km/h 92% 0.0 mm 0 W/m2
17:24 13 °C 11.7 °C 1020.7 hPa WNW 3.2 km/h 3.2 km/h 92% 0.0 mm 0 W/m2
17:29 12.9 °C 11.6 °C 1021.0 hPa Calm   3.2 km/h 92% 0.0 mm 0 W/m2
17:34 12.9 °C 11.6 °C 1020.7 hPa Calm   1.6 km/h 92% 0.0 mm 0 W/m2
17:39 12.9 °C 11.6 °C 1021.0 hPa NW 1.4 km/h 4.8 km/h 92% 0.0 mm 0 W/m2
17:44 12.9 °C 11.6 °C 1021.0 hPa West 4.7 km/h 6.4 km/h 92% 0.0 mm 0 W/m2
17:49 12.9 °C 11.6 °C 1021.0 hPa Calm   3.2 km/h 92% 0.0 mm 0 W/m2
17:54 12.9 °C 11.6 °C 1021.0 hPa West 1.4 km/h 12.9 km/h 92% 0.0 mm 0 W/m2
17:59 12.9 °C 11.6 °C 1021.0 hPa WSW 11.1 km/h 11.3 km/h 92% 0.0 mm 0 W/m2
18:04 12.8 °C 11.5 °C 1021.0 hPa West 3.2 km/h 12.9 km/h 92% 0.0 mm 0 W/m2
18:09 12.8 °C 11.5 °C 1021.0 hPa West 4.7 km/h 6.4 km/h 92% 0.0 mm 0 W/m2
18:14 12.8 °C 11.7 °C 1021.3 hPa North 3.2 km/h 12.9 km/h 93% 0.0 mm 0 W/m2
18:19 12.8 °C 11.7 °C 1021.3 hPa ESE 3.2 km/h 3.2 km/h 93% 0.0 mm 0 W/m2
18:24 12.8 °C 11.7 °C 1021.3 hPa SW 3.2 km/h 6.4 km/h 93% 0.0 mm 0 W/m2
18:29 12.8 °C 11.7 °C 1021.3 hPa WNW 1.4 km/h 11.3 km/h 93% 0.0 mm 0 W/m2
18:34 12.8 °C 11.7 °C 1021.3 hPa Calm   3.2 km/h 93% 0.0 mm 0 W/m2
18:39 12.8 °C 11.7 °C 1021.3 hPa WNW 1.4 km/h 9.7 km/h 93% 0.0 mm 0 W/m2
18:44 12.8 °C 11.7 °C 1021.3 hPa Calm   3.2 km/h 93% 0.0 mm 0 W/m2
18:49 12.7 °C 11.6 °C 1021.3 hPa Calm   6.4 km/h 93% 0.0 mm 0 W/m2
18:54 12.7 °C 11.6 °C 1021.3 hPa NNW 1.4 km/h 4.8 km/h 93% 0.0 mm 0 W/m2
18:59 12.7 °C 11.6 °C 1021.3 hPa NW 1.4 km/h 6.4 km/h 93% 0.0 mm 0 W/m2
19:04 12.7 °C 11.6 °C 1021.3 hPa Calm     93% 0.0 mm 0 W/m2
19:09 12.7 °C 11.6 °C 1021.3 hPa NW 3.2 km/h 6.4 km/h 93% 0.0 mm 0 W/m2
19:14 12.7 °C 11.6 °C 1021.3 hPa West 1.4 km/h 3.2 km/h 93% 0.0 mm 0 W/m2
19:19 12.6 °C 11.5 °C 1021.3 hPa Calm   6.4 km/h 93% 0.0 mm 0 W/m2
19:24 12.6 °C 11.5 °C 1021.3 hPa Calm   1.6 km/h 93% 0.0 mm 0 W/m2
19:29 12.5 °C 11.4 °C 1021.3 hPa NW 1.4 km/h 6.4 km/h 93% 0.0 mm 0 W/m2
19:34 12.4 °C 11.3 °C 1021.7 hPa Calm     93% 0.0 mm 0 W/m2
19:39 12.4 °C 11.5 °C 1021.7 hPa Calm   6.4 km/h 94% 0.0 mm 0 W/m2
19:44 12.4 °C 11.5 °C 1021.7 hPa WNW 1.4 km/h 3.2 km/h 94% 0.0 mm 0 W/m2
19:49 12.4 °C 11.5 °C 1021.7 hPa Calm   1.6 km/h 94% 0.0 mm 0 W/m2
19:54 12.4 °C 11.5 °C 1021.7 hPa North 3.2 km/h 3.2 km/h 94% 0.0 mm 0 W/m2
19:59 12.4 °C 11.5 °C 1021.7 hPa West 3.2 km/h 3.2 km/h 94% 0.0 mm 0 W/m2
20:04 12.4 °C 11.5 °C 1021.7 hPa NW 3.2 km/h 6.4 km/h 94% 0.0 mm 0 W/m2
20:09 12.4 °C 11.5 °C 1021.7 hPa NW 1.4 km/h 3.2 km/h 94% 0.0 mm 0 W/m2
20:14 12.4 °C 11.3 °C 1021.7 hPa Calm   3.2 km/h 93% 0.0 mm 0 W/m2
20:19 12.4 °C 11.3 °C 1021.7 hPa SSW 1.4 km/h 6.4 km/h 93% 0.0 mm 0 W/m2
20:24 12.4 °C 11.3 °C 1021.7 hPa Calm     93% 0.0 mm 0 W/m2
20:29 12.4 °C 11.3 °C 1021.7 hPa Calm   4.8 km/h 93% 0.0 mm 0 W/m2
20:34 12.4 °C 11.3 °C 1021.7 hPa Calm   3.2 km/h 93% 0.0 mm 0 W/m2
20:39 12.3 °C 11.2 °C 1021.7 hPa Calm     93% 0.0 mm 0 W/m2
20:44 12.3 °C 11.2 °C 1021.7 hPa Calm   4.8 km/h 93% 0.0 mm 0 W/m2
20:49 12.3 °C 11.2 °C 1021.7 hPa Calm     93% 0.0 mm 0 W/m2
20:54 12.3 °C 11.2 °C 1021.7 hPa Calm   3.2 km/h 93% 0.0 mm 0 W/m2
20:59 12.2 °C 11.1 °C 1021.7 hPa Calm   3.2 km/h 93% 0.0 mm 0 W/m2
21:04 12.2 °C 11.3 °C 1021.7 hPa Calm   1.6 km/h 94% 0.0 mm 0 W/m2
21:09 12.2 °C 11.1 °C 1021.7 hPa Calm     93% 0.0 mm 0 W/m2
21:14 12.1 °C 11 °C 1021.7 hPa ESE 1.4 km/h 3.2 km/h 93% 0.0 mm 0 W/m2
21:19 12.1 °C 11 °C 1021.7 hPa Calm     93% 0.0 mm 0 W/m2
21:24 12.1 °C 11.2 °C 1022.0 hPa Calm   3.2 km/h 94% 0.0 mm 0 W/m2
21:29 12.1 °C 11.2 °C 1022.0 hPa Calm     94% 0.0 mm 0 W/m2
21:34 12 °C 11.1 °C 1022.0 hPa ESE 1.4 km/h 3.2 km/h 94% 0.0 mm 0 W/m2
21:39 11.9 °C 11 °C 1021.7 hPa Calm     94% 0.0 mm 0 W/m2
21:44 11.9 °C 11 °C 1021.7 hPa Calm     94% 0.0 mm 0 W/m2
21:49 11.9 °C 11 °C 1022.0 hPa Calm   3.2 km/h 94% 0.0 mm 0 W/m2
21:54 11.9 °C 11 °C 1022.0 hPa Calm   3.2 km/h 94% 0.0 mm 0 W/m2
21:59 11.9 °C 11 °C 1022.0 hPa Calm     94% 0.0 mm 0 W/m2
22:04 11.8 °C 10.9 °C 1022.0 hPa ENE 3.2 km/h 3.2 km/h 94% 0.0 mm 0 W/m2
22:09 11.8 °C 10.9 °C 1022.0 hPa Calm     94% 0.0 mm 0 W/m2
22:14 11.8 °C 10.9 °C 1022.0 hPa Calm     94% 0.0 mm 0 W/m2
22:19 11.7 °C 10.8 °C 1022.4 hPa Calm     94% 0.0 mm 0 W/m2
22:24 11.6 °C 10.7 °C 1022.4 hPa Calm     94% 0.0 mm 0 W/m2
22:29 11.4 °C 10.3 °C 1022.4 hPa Calm     93% 0.0 mm 0 W/m2
22:34 11.3 °C 10.4 °C 1022.4 hPa Calm     94% 0.0 mm 0 W/m2
22:39 11.1 °C 10.2 °C 1022.4 hPa Calm     94% 0.0 mm 0 W/m2
22:44 10.9 °C 10 °C 1022.4 hPa Calm     94% 0.0 mm 0 W/m2
22:49 10.8 °C 9.9 °C 1022.4 hPa Calm     94% 0.0 mm 0 W/m2
22:54 10.8 °C 10 °C 1022.4 hPa Calm     95% 0.0 mm 0 W/m2
22:59 10.8 °C 10 °C 1022.4 hPa Calm   1.6 km/h 95% 0.0 mm 0 W/m2
23:04 11 °C 10.2 °C 1022.4 hPa Calm   1.6 km/h 95% 0.0 mm 0 W/m2
23:09 11.1 °C 10.3 °C 1022.4 hPa Calm   1.6 km/h 95% 0.0 mm 0 W/m2
23:14 11.1 °C 10.3 °C 1022.4 hPa SE 1.4 km/h 3.2 km/h 95% 0.0 mm 0 W/m2
23:19 11.1 °C 10.3 °C 1022.4 hPa Calm   3.2 km/h 95% 0.0 mm 0 W/m2
23:24 11.1 °C 10.3 °C 1022.4 hPa SSE 1.4 km/h 3.2 km/h 95% 0.0 mm 0 W/m2
23:29 11.1 °C 10.3 °C 1022.4 hPa Calm   1.6 km/h 95% 0.0 mm 0 W/m2
23:34 11.1 °C 10.3 °C 1022.4 hPa Calm   3.2 km/h 95% 0.0 mm 0 W/m2
23:39 11.1 °C 10.3 °C 1022.4 hPa SSE 1.4 km/h 3.2 km/h 95% 0.0 mm 0 W/m2
23:44 11.1 °C 10.3 °C 1022.0 hPa Calm   3.2 km/h 95% 0.0 mm 0 W/m2
23:49 11.2 °C 10.6 °C 1022.4 hPa ESE 1.4 km/h 3.2 km/h 96% 0.0 mm 0 W/m2
23:54 11.2 °C 10.4 °C 1022.0 hPa Calm     95% 0.0 mm 0 W/m2
23:59 11.2 °C 10.4 °C 1022.0 hPa Calm   3.2 km/h 95% 0.0 mm 0 W/m2
Juneau County Weather
Compliments of Weather Underground - 2 mb